South Lake Tahoe, CA

2:46 AM PST on February 24, 2018 (GMT -0800)
Lake Tahoe

Weather History for KTVL - March, 2011

Change the Weather History Date:

Monday, March 7, 2011

  Actual Average Record
Temperature  
Mean Temperature 31 °F 34 °F  
Max Temperature 35 °F 47 °F 61 °F (2015)
Min Temperature 27 °F 21 °F -5 °F (1998)
Degree Days  
Heating Degree Days 34 31  
Month to date heating degree days 221 220  
Since 1 July heating degree days 5059 5457  
Cooling Degree Days 0 0  
Month to date cooling degree days 0 0  
Year to date cooling degree days 0 0  
Moisture  
Dew Point 27 °F    
Average Humidity 74    
Maximum Humidity 96    
Minimum Humidity 51    
Precipitation  
Precipitation 0.26 in - 1.32 in (1960)
Month to date precipitation 1.22  
Year to date precipitation 3.58  
Snow  
Snow 2.00 in - - ()
Month to date snowfall 3.0  
Snow Depth 11.00 in    
Sea Level Pressure  
Sea Level Pressure 29.77 in    
Wind  
Wind Speed 3 mph (South)    
Max Wind Speed 15 mph    
Max Gust Speed 41 mph    
Visibility 4 miles    
Events Fog , Snow    
T = Trace of Precipitation, MM = Missing Value Source: NWS Daily Summary

Daily Weather History Graph

Daily Weather History Graph

Search for Another Location

Airport or City:

Trip Planner

Search our weather history database for the weather conditions in past years. The results will help you decide how hot, cold, wet, or windy it might be!

Date:

Astronomy

Mar. 07, 2011 Rise Set
Actual Time 6:23 AM PST 5:58 PM PST
Civil Twilight 5:57 AM PST 6:25 PM PST
Nautical Twilight 5:26 AM PST 6:56 PM PST
Astronomical Twilight 4:55 AM PST 7:27 PM PST
Moon 7:18 AM PST (3/7) 9:01 PM PST (3/7)
Length of Visible Light 12h 28m
Length of Day
11h 35m
Waxing Crescent, 8% of the Moon is Illuminated
Mar 7
Waxing Crescent
Mar 12
First Quarter
Mar 19
Full
Mar 26
Last Quarter
Apr 3
New

Hourly Weather History & Observations

Time (PST) Temp. Windchill Dew Point Humidity Pressure Visibility Wind Dir Wind Speed Gust Speed Precip Events Conditions
12:09 AM 33.8 °F - 32.0 °F 93% 29.74 in 0.5 mi Calm Calm - 0.05 in Fog , Snow Snow
12:45 AM 33.8 °F 30.8 °F 32.0 °F 93% 29.73 in 1.5 mi South 3.5 mph - 0.13 in Snow Light Snow
12:49 AM 33.8 °F 30.8 °F 32.0 °F 93% 29.73 in 2.5 mi SSE 3.5 mph - 0.13 in Snow Light Snow
12:53 AM 34.0 °F - 32.0 °F 92% 29.68 in 5.0 mi Calm Calm - 0.13 in Snow Light Snow
1:03 AM 35.6 °F - 32.0 °F 87% 29.73 in 2.5 mi Calm Calm - 0.00 in Snow Light Snow
1:05 AM 35.6 °F - 32.0 °F 87% 29.73 in 1.2 mi Calm Calm - 0.01 in Snow Light Snow
1:08 AM 33.8 °F 30.8 °F 32.0 °F 93% 29.73 in 0.8 mi SE 3.5 mph - 0.02 in Snow Light Snow
1:17 AM 33.8 °F 30.8 °F 32.0 °F 93% 29.73 in 0.8 mi South 3.5 mph - 0.03 in Snow Light Snow
1:22 AM 33.8 °F 29.6 °F 32.0 °F 93% 29.72 in 1.0 mi SSE 4.6 mph - 0.04 in Snow Light Snow
1:28 AM 33.8 °F 29.6 °F 32.0 °F 93% 29.72 in 2.0 mi South 4.6 mph - 0.04 in Snow Light Snow
1:31 AM 35.6 °F 31.7 °F 32.0 °F 87% 29.72 in 3.0 mi South 4.6 mph - 0.04 in Snow Light Snow
1:39 AM 33.8 °F 29.6 °F 32.0 °F 93% 29.72 in 3.0 mi SSW 4.6 mph - 0.04 in Snow Light Snow
1:41 AM 33.8 °F 30.8 °F 32.0 °F 93% 29.72 in 2.5 mi SSW 3.5 mph - 0.04 in Snow Light Snow
1:45 AM 33.8 °F 30.8 °F 32.0 °F 93% 29.72 in 1.5 mi SSE 3.5 mph - 0.04 in Snow Light Snow
1:53 AM 33.8 °F - 32.0 °F 93% 29.72 in 1.5 mi Calm Calm - N/A Snow Light Snow
2:14 AM 33.8 °F - 32.0 °F 93% 29.72 in 0.8 mi Calm Calm - 0.03 in Snow Light Snow
2:22 AM 33.8 °F - 32.0 °F 93% 29.72 in 0.8 mi Calm Calm - 0.04 in Snow Light Snow
2:26 AM 33.8 °F - 32.0 °F 93% 29.72 in 1.0 mi Calm Calm - 0.04 in Snow Light Snow
2:36 AM 33.8 °F - 32.0 °F 93% 29.72 in 3.0 mi Calm Calm - 0.04 in Snow Light Snow
2:39 AM 33.8 °F - 32.0 °F 93% 29.72 in 5.0 mi Calm Calm - 0.04 in Snow Light Snow
2:53 AM 34.0 °F - 32.0 °F 92% 29.67 in 6.0 mi Calm Calm - 0.04 in   Overcast
2:57 AM 35.6 °F 29.9 °F 30.2 °F 81% 29.72 in 2.5 mi Variable 6.9 mph - 0.01 in Snow Light Snow
3:02 AM 33.8 °F 30.8 °F 30.2 °F 87% 29.72 in 1.2 mi North 3.5 mph - 0.01 in Snow Light Snow
3:13 AM 33.8 °F - 32.0 °F 93% 29.72 in 0.8 mi Calm Calm - 0.02 in Snow Light Snow
3:19 AM 33.8 °F - 30.2 °F 87% 29.72 in 2.0 mi Calm Calm - 0.02 in Snow Light Snow
3:23 AM 33.8 °F - 30.2 °F 87% 29.72 in 3.0 mi Calm Calm - 0.02 in Snow Light Snow
3:34 AM 33.8 °F - 30.2 °F 87% 29.72 in 8.0 mi Calm Calm - N/A Snow Light Snow
3:50 AM 33.8 °F - 30.2 °F 87% 29.72 in 3.0 mi Calm Calm - 0.02 in Snow Light Snow
3:53 AM 34.0 °F - 30.0 °F 85% 29.67 in 4.0 mi Calm Calm - 0.02 in Snow Light Snow
4:00 AM 33.8 °F 30.8 °F 30.2 °F 87% 29.72 in 9.0 mi Variable 3.5 mph - 0.00 in   Overcast
4:34 AM 33.8 °F - 26.6 °F 75% 29.73 in 3.0 mi Calm Calm - 0.00 in Snow Light Snow
4:42 AM 33.8 °F 30.8 °F 26.6 °F 75% 29.73 in 2.0 mi Variable 3.5 mph - 0.01 in Snow Light Snow
4:45 AM 33.8 °F - 26.6 °F 75% 29.73 in 1.2 mi Calm Calm - 0.01 in Snow Light Snow
4:48 AM 32.0 °F - 28.4 °F 87% 29.72 in 0.8 mi Calm Calm - 0.01 in Snow Light Snow
4:53 AM 32.0 °F - 27.0 °F 82% 29.68 in 1.2 mi Calm Calm - 0.01 in Snow Light Snow
4:57 AM 30.2 °F 25.4 °F 26.6 °F 86% 29.72 in 2.5 mi Variable 4.6 mph - 0.00 in Snow Light Snow
5:00 AM 30.2 °F 23.4 °F 26.6 °F 86% 29.73 in 5.0 mi South 6.9 mph - 0.00 in Snow Light Snow
5:18 AM 32.0 °F 25.6 °F 26.6 °F 80% 29.72 in 3.0 mi SSW 6.9 mph - 0.00 in Snow Light Snow
5:20 AM 32.0 °F 28.7 °F 26.6 °F 80% 29.72 in 2.0 mi Variable 3.5 mph - 0.00 in Snow Light Snow
5:24 AM 32.0 °F - 26.6 °F 80% 29.72 in 1.0 mi Calm Calm - 0.01 in Snow Light Snow
5:27 AM 32.0 °F - 28.4 °F 87% 29.72 in 0.8 mi Calm Calm - 0.01 in Snow Light Snow
5:33 AM 32.0 °F - 28.4 °F 87% 29.72 in 1.0 mi Calm Calm - 0.01 in Snow Light Snow
5:38 AM 30.2 °F - 26.6 °F 86% 29.72 in 2.0 mi Calm Calm - 0.01 in Snow Light Snow
5:45 AM 30.2 °F - 28.4 °F 93% 29.72 in 1.8 mi Calm Calm - 0.01 in Snow Light Snow
5:53 AM 30.9 °F - 28.0 °F 89% 29.69 in 2.0 mi Calm Calm - 0.01 in Snow Light Snow
6:07 AM 30.2 °F - 28.4 °F 93% 29.73 in 0.8 mi Calm Calm - 0.01 in Snow Light Snow
6:15 AM 30.2 °F - 26.6 °F 86% 29.73 in 0.5 mi Calm Calm - 0.03 in Fog , Snow Snow
6:23 AM 30.2 °F 26.7 °F 26.6 °F 86% 29.73 in 1.0 mi NNE 3.5 mph - 0.03 in Snow Light Snow
6:41 AM 30.2 °F - 26.6 °F 86% 29.74 in 1.2 mi Calm Calm - 0.03 in Snow Light Snow
6:53 AM 30.9 °F 27.5 °F 26.1 °F 82% 29.72 in 1.2 mi Variable 3.5 mph - 0.03 in Snow Light Snow
6:59 AM 30.2 °F 26.7 °F 24.8 °F 80% 29.75 in 2.0 mi Variable 3.5 mph - 0.00 in Snow Light Snow
7:16 AM 30.2 °F 25.4 °F 24.8 °F 80% 29.76 in 3.0 mi SSW 4.6 mph - 0.00 in Snow Light Snow
7:23 AM 30.2 °F - 26.6 °F 86% 29.76 in 2.5 mi Calm Calm - 0.00 in Snow Light Snow
7:32 AM 30.2 °F - 24.8 °F 80% 29.76 in 5.0 mi Calm Calm - 0.00 in Snow Light Snow
7:53 AM 30.9 °F 27.5 °F 21.0 °F 67% 29.76 in 10.0 mi Variable 3.5 mph - 0.00 in   Overcast
8:53 AM 30.9 °F - 21.0 °F 67% 29.79 in 10.0 mi Calm Calm - N/A   Mostly Cloudy
9:53 AM 32.0 °F 26.4 °F 19.9 °F 61% 29.81 in 10.0 mi SSW 5.8 mph - 0.00 in   Overcast
10:53 AM 32.0 °F 24.2 °F 18.0 °F 56% 29.84 in 10.0 mi SSW 9.2 mph 20.7 mph 0.00 in   Clear
11:53 AM 33.1 °F 27.7 °F 18.0 °F 54% 29.85 in 10.0 mi Variable 5.8 mph 17.3 mph 0.00 in   Scattered Clouds
12:53 PM 32.0 °F 26.4 °F 19.9 °F 61% 29.86 in 8.0 mi Variable 5.8 mph 16.1 mph 0.00 in Snow Light Snow
1:53 PM 32.0 °F 22.1 °F 19.9 °F 61% 29.88 in 9.0 mi SSW 13.8 mph 23.0 mph 0.00 in   Partly Cloudy
2:53 PM 33.1 °F 24.9 °F 18.0 °F 54% 29.90 in 10.0 mi South 10.4 mph - N/A   Scattered Clouds
3:53 PM 32.0 °F 28.7 °F 19.9 °F 61% 29.92 in 10.0 mi Variable 3.5 mph - N/A   Scattered Clouds
4:53 PM 30.9 °F - 19.0 °F 61% 29.95 in 10.0 mi Calm Calm - N/A   Overcast
5:53 PM 30.0 °F 22.4 °F 23.0 °F 75% 29.97 in 10.0 mi SSW 8.1 mph - N/A   Overcast
6:53 PM 30.9 °F - 19.0 °F 61% 30.00 in 10.0 mi Calm Calm - 0.00 in   Overcast
7:53 PM 30.0 °F - 21.0 °F 69% 30.01 in 10.0 mi Calm Calm - 0.00 in   Overcast
8:53 PM 28.0 °F - 21.0 °F 75% 30.04 in 10.0 mi Calm Calm - N/A   Scattered Clouds
9:53 PM 28.9 °F - 23.0 °F 78% 30.06 in 10.0 mi Calm Calm - N/A   Overcast
10:53 PM 30.0 °F - 23.0 °F 75% 30.06 in 10.0 mi Calm Calm - N/A   Overcast
11:53 PM 30.0 °F 26.5 °F 23.0 °F 75% 30.07 in 10.0 mi South 3.5 mph - N/A   Overcast